Location: Chavannes
(47.1090°N, 0.2226°W)
Time: 15:05:58
(UTC+00:00)

Cosmos 389 Rocket - Pass Details

Date: 16 October 2021
Orbit: 438 x 468 km, 81.1° (Epoch: 07 December)

Event Time Altitude Azimuth Distance (km) Brightness Sun altitude
Rises 18:56:54 0° 213° (SSW) 2,414 6.5 -18.7°
Reaches altitude 10° 18:59:07 10° 224° (SW) 1,551 5.6 -19.1°
Maximum altitude 19:02:07 30° 287° (WNW) 827 4.4 -19.6°
Drops below altitude 10° 19:05:11 10° 351° (N) 1,568 5.3 -20.1°
Sets 19:07:26 0° 3° (N) 2,448 6.2 -20.5°
